Change the Weather History Date:

Saturday, March 23, 2013

  Actual Average Record
Temperature  
Mean Temperature 32 °F -  
Max Temperature 39 °F 42 °F 71 °F (2012)
Min Temperature 24 °F 24 °F 6 °F (2004)
Degree Days  
Heating Degree Days 34    
Moisture  
Dew Point 16 °F    
Average Humidity 52    
Maximum Humidity 80    
Minimum Humidity 36    
Precipitation  
Precipitation 0.00 in - - ()
Sea Level Pressure  
Sea Level Pressure 29.62 in    
Wind  
Wind Speed 14 mph (West)    
Max Wind Speed 31 mph    
Max Gust Speed 47 mph    
Visibility 10 miles    
Events      
Averages and records for this station are not official NWS values.
T = Trace of Precipitation, MM = Missing Value Source: NWS Daily Summary

Daily Weather History Graph

Daily Weather History Graph

Search for Another Location

Airport or City:

Trip Planner

Search our weather history database for the weather conditions in past years. The results will help you decide how hot, cold, wet, or windy it might be!

Date:

Astronomy

Mar. 23, 2013 Rise Set
Actual Time 6:40 AM EDT 6:59 PM EDT
Civil Twilight 6:11 AM EDT 7:27 PM EDT
Nautical Twilight 5:38 AM EDT 8:01 PM EDT
Astronomical Twilight 5:03 AM EDT 8:35 PM EDT
Moon 3:17 PM EDT (3/23) 4:20 AM EDT (3/23)
Length of Visible Light 13h 15m
Length of Day
12h 18m
Waxing Gibbous, 85% of the Moon is Illuminated
Mar 23
Waxing Gibbous
Mar 27
Full
Apr 3
Last Quarter
Apr 10
New
Apr 18
First Quarter

Hourly Weather History & Observations

Time (EDT) Temp. Windchill Dew Point Humidity Pressure Visibility Wind Dir Wind Speed Gust Speed Precip Events Conditions
12:15 AM 28.4 °F 19.1 °F 17.6 °F 64% 29.66 in 10.0 mi WNW 10.4 mph 20.7 mph N/A   Partly Cloudy
12:35 AM 28.4 °F 16.6 °F 15.8 °F 59% 29.66 in 10.0 mi WNW 16.1 mph 23.0 mph N/A   Clear
12:55 AM 28.4 °F 17.0 °F 8.6 °F 43% 29.66 in 10.0 mi West 15.0 mph 19.6 mph N/A   Clear
1:15 AM 28.4 °F 18.0 °F 10.4 °F 47% 29.67 in 10.0 mi WNW 12.7 mph - N/A   Clear
1:35 AM 28.4 °F 18.0 °F 15.8 °F 59% 29.66 in 10.0 mi West 12.7 mph 18.4 mph N/A   Clear
1:55 AM 28.4 °F 18.0 °F 10.4 °F 47% 29.66 in 10.0 mi West 12.7 mph 17.3 mph N/A   Clear
2:15 AM 28.4 °F 19.1 °F 15.8 °F 59% 29.66 in 10.0 mi West 10.4 mph 17.3 mph N/A   Clear
2:35 AM 26.6 °F 16.2 °F 15.8 °F 64% 29.65 in 10.0 mi WNW 11.5 mph - N/A   Clear
2:55 AM 26.6 °F 16.8 °F 8.6 °F 47% 29.65 in 10.0 mi West 10.4 mph - N/A   Clear
3:15 AM 26.6 °F 16.2 °F 17.6 °F 69% 29.65 in 10.0 mi West 11.5 mph - N/A   Clear
3:35 AM 26.6 °F 16.2 °F 10.4 °F 51% 29.65 in 10.0 mi West 11.5 mph 17.3 mph N/A   Clear
3:55 AM 26.6 °F 16.8 °F 12.2 °F 55% 29.64 in 10.0 mi West 10.4 mph - N/A   Clear
4:15 AM 26.6 °F 19.1 °F 17.6 °F 69% 29.64 in 10.0 mi WSW 6.9 mph - N/A   Clear
4:35 AM 24.8 °F 16.1 °F 8.6 °F 50% 29.63 in 10.0 mi SW 8.1 mph - N/A   Clear
4:55 AM 24.8 °F 16.1 °F 17.6 °F 74% 29.62 in 10.0 mi WSW 8.1 mph - N/A   Clear
5:15 AM 24.8 °F 15.3 °F 12.2 °F 59% 29.62 in 10.0 mi WSW 9.2 mph - N/A   Clear
5:35 AM 24.8 °F 15.3 °F 14.0 °F 64% 29.62 in 10.0 mi WSW 9.2 mph - N/A   Clear
5:55 AM 24.8 °F 16.9 °F 17.6 °F 74% 29.62 in 10.0 mi WSW 6.9 mph - N/A   Clear
6:15 AM 24.8 °F 15.3 °F 8.6 °F 50% 29.61 in 10.0 mi WSW 9.2 mph - N/A   Clear
6:35 AM 24.8 °F 16.1 °F 19.4 °F 80% 29.61 in 10.0 mi WSW 8.1 mph 17.3 mph N/A   Clear
6:55 AM 24.8 °F 15.3 °F 10.4 °F 54% 29.61 in 10.0 mi WSW 9.2 mph - N/A   Clear
7:15 AM 26.6 °F 17.5 °F 17.6 °F 69% 29.61 in 10.0 mi West 9.2 mph - N/A   Scattered Clouds
7:35 AM 28.4 °F 20.4 °F 15.8 °F 59% 29.61 in 10.0 mi WSW 8.1 mph - N/A   Scattered Clouds
7:55 AM 28.4 °F 17.5 °F 12.2 °F 51% 29.61 in 10.0 mi WSW 13.8 mph 20.7 mph N/A   Clear
8:15 AM 28.4 °F 17.5 °F 21.2 °F 74% 29.61 in 10.0 mi West 13.8 mph 19.6 mph N/A   Clear
8:35 AM 28.4 °F 18.0 °F 10.4 °F 47% 29.61 in 10.0 mi WSW 12.7 mph - N/A   Clear
8:55 AM 30.2 °F 21.9 °F 23.0 °F 75% 29.61 in 10.0 mi WSW 9.2 mph 17.3 mph N/A   Scattered Clouds
9:15 AM 30.2 °F 21.3 °F 15.8 °F 55% 29.60 in 10.0 mi West 10.4 mph 18.4 mph N/A   Partly Cloudy
9:35 AM 30.2 °F 20.8 °F 15.8 °F 55% 29.59 in 10.0 mi West 11.5 mph 24.2 mph N/A   Partly Cloudy
9:55 AM 32.0 °F 22.1 °F 21.2 °F 64% 29.59 in 10.0 mi West 13.8 mph 27.6 mph N/A   Partly Cloudy
10:15 AM 32.0 °F 22.5 °F 12.2 °F 44% 29.58 in 10.0 mi West 12.7 mph 33.4 mph N/A   Mostly Cloudy
10:35 AM 33.8 °F 24.8 °F 17.6 °F 52% 29.58 in 10.0 mi West 12.7 mph 24.2 mph N/A   Partly Cloudy
10:55 AM 33.8 °F 21.6 °F 19.4 °F 56% 29.57 in 10.0 mi West 23.0 mph 28.8 mph N/A   Clear
11:15 AM 35.6 °F 25.2 °F 12.2 °F 38% 29.57 in 10.0 mi West 18.4 mph 32.2 mph N/A   Partly Cloudy
11:35 AM 35.6 °F 24.8 °F 17.6 °F 48% 29.56 in 10.0 mi WNW 19.6 mph 29.9 mph N/A   Mostly Cloudy
11:55 AM 35.6 °F 24.0 °F 19.4 °F 52% 29.56 in 10.0 mi WNW 23.0 mph 32.2 mph N/A   Scattered Clouds
12:15 PM 37.4 °F 25.2 °F 15.8 °F 41% 29.55 in 10.0 mi WNW 28.8 mph 36.8 mph N/A   Partly Cloudy
12:35 PM 37.4 °F 25.9 °F 12.2 °F 36% 29.55 in 10.0 mi West 25.3 mph 47.2 mph N/A   Scattered Clouds
12:55 PM 37.4 °F 24.8 °F 15.8 °F 41% 29.55 in 10.0 mi WNW 31.1 mph 40.3 mph N/A   Partly Cloudy
1:15 PM 37.4 °F 26.6 °F 15.8 °F 41% 29.55 in 10.0 mi West 21.9 mph 34.5 mph N/A   Partly Cloudy
1:35 PM 37.4 °F 26.4 °F 12.2 °F 36% 29.55 in 10.0 mi West 23.0 mph 34.5 mph N/A   Mostly Cloudy
1:55 PM 39.2 °F 29.0 °F 14.0 °F 36% 29.55 in 10.0 mi WNW 21.9 mph 32.2 mph N/A   Scattered Clouds
2:15 PM 39.2 °F 29.3 °F 17.6 °F 42% 29.55 in 10.0 mi West 20.7 mph 31.1 mph N/A   Scattered Clouds
2:35 PM 39.2 °F 30.2 °F 17.6 °F 42% 29.55 in 10.0 mi West 17.3 mph 31.1 mph N/A   Overcast
2:55 PM 39.2 °F 30.2 °F 15.8 °F 39% 29.56 in 10.0 mi WNW 17.3 mph 32.2 mph N/A   Overcast
3:15 PM 39.2 °F 29.0 °F 15.8 °F 39% 29.56 in 10.0 mi WNW 21.9 mph 32.2 mph N/A   Overcast
3:35 PM 39.2 °F 30.2 °F 15.8 °F 39% 29.56 in 10.0 mi WNW 17.3 mph 36.8 mph N/A   Overcast
3:55 PM 37.4 °F 28.9 °F 14.0 °F 38% 29.57 in 10.0 mi WNW 13.8 mph 32.2 mph N/A   Mostly Cloudy
4:15 PM 37.4 °F 30.3 °F 14.0 °F 38% 29.59 in 10.0 mi WNW 10.4 mph 25.3 mph N/A   Mostly Cloudy
4:35 PM 37.4 °F 28.2 °F 15.8 °F 41% 29.60 in 10.0 mi WNW 16.1 mph 28.8 mph N/A   Overcast
4:55 PM 37.4 °F 28.2 °F 17.6 °F 45% 29.61 in 10.0 mi NW 16.1 mph 33.4 mph N/A   Overcast
5:15 PM 37.4 °F 27.8 °F 19.4 °F 48% 29.61 in 10.0 mi NW 17.3 mph 25.3 mph N/A   Overcast
5:35 PM 37.4 °F 26.9 °F 19.4 °F 48% 29.62 in 10.0 mi WNW 20.7 mph 28.8 mph N/A   Mostly Cloudy
5:55 PM 35.6 °F 24.2 °F 17.6 °F 48% 29.62 in 10.0 mi WNW 21.9 mph 36.8 mph N/A   Partly Cloudy
6:15 PM 35.6 °F 24.5 °F 17.6 °F 48% 29.63 in 10.0 mi WNW 20.7 mph 32.2 mph N/A   Partly Cloudy
6:36 PM 35.6 °F 24.5 °F 17.6 °F 48% 29.63 in 10.0 mi WNW 20.7 mph 32.2 mph N/A   Partly Cloudy
6:55 PM 35.6 °F 24.8 °F 17.6 °F 48% 29.63 in 10.0 mi WNW 19.6 mph 28.8 mph N/A   Clear
7:15 PM 35.6 °F 24.8 °F 17.6 °F 48% 29.65 in 10.0 mi WNW 19.6 mph 26.5 mph N/A   Scattered Clouds
7:35 PM 35.6 °F 25.5 °F 19.4 °F 52% 29.65 in 10.0 mi West 17.3 mph 23.0 mph N/A   Mostly Cloudy
7:55 PM 35.6 °F 25.9 °F 21.2 °F 56% 29.66 in 10.0 mi West 16.1 mph 31.1 mph N/A   Partly Cloudy
8:15 PM 35.6 °F 25.2 °F 17.6 °F 48% 29.67 in 10.0 mi West 18.4 mph 27.6 mph N/A   Clear
8:35 PM 35.6 °F 25.2 °F 17.6 °F 48% 29.68 in 10.0 mi West 18.4 mph 26.5 mph N/A   Clear
8:55 PM 33.8 °F 24.3 °F 17.6 °F 52% 29.69 in 10.0 mi West 13.8 mph 20.7 mph N/A   Clear
9:15 PM 33.8 °F 24.8 °F 21.2 °F 60% 29.70 in 10.0 mi WNW 12.7 mph 21.9 mph N/A   Clear
9:35 PM 33.8 °F 23.5 °F 21.2 °F 60% 29.69 in 10.0 mi WNW 16.1 mph 23.0 mph N/A   Clear
9:55 PM 33.8 °F 23.5 °F 17.6 °F 52% 29.69 in 10.0 mi WNW 16.1 mph 24.2 mph N/A   Clear
10:15 PM 33.8 °F 25.3 °F 17.6 °F 52% 29.69 in 10.0 mi West 11.5 mph 20.7 mph N/A   Clear
10:35 PM 33.8 °F 27.0 °F 19.4 °F 56% 29.69 in 10.0 mi WNW 8.1 mph 16.1 mph N/A   Clear
10:55 PM 33.8 °F 27.0 °F 21.2 °F 60% 29.69 in 10.0 mi West 8.1 mph 16.1 mph N/A   Clear
11:15 PM 33.8 °F 25.8 °F 17.6 °F 52% 29.68 in 10.0 mi West 10.4 mph - N/A   Clear
11:35 PM 32.0 °F 24.2 °F 17.6 °F 55% 29.69 in 10.0 mi West 9.2 mph - N/A   Clear
11:55 PM 32.0 °F 23.0 °F 21.2 °F 64% 29.68 in 10.0 mi WNW 11.5 mph 18.4 mph N/A   Clear